Regional Weather Roundup
Issued by NWS

Home | Current Version | Previous Version | Text Only | Print | Product List | Glossary Off
Versions: 1 2 3 4 5 6 7 8 9 10 11 12 13 14 15 16 17 18 19 20 21 22 23 24 25 26 27 28 29 30 31 32 33 34 35 36 37 38 39 40 41 42 43 44 45 46 47 48 49 50

000
ASUS43 KLMK 300002
RWRKY
KENTUCKY REGIONAL WEATHER ROUNDUP
NATIONAL WEATHER SERVICE LOUISVILLE KY
800 PM EDT FRI AUG 29 2014

NOTE "FAIR" INDICATES FEW OR NO CLOUDS BELOW 12,000 FEET
WITH NO SIGNIFICANT WEATHER AND/OR OBSTRUCTIONS TO VISIBILITY.

KYZ001>023-026-027-061>063-070>075-300100-
WESTERN AND SOUTH CENTRAL KENTUCKY

CITY           SKY/WX    TMP DP  RH WIND       PRES   REMARKS
PADUCAH        PTCLDY    86  65  49 S5        29.92S
HENDERSON      CLEAR     84  64  51 S5        29.93R
OWENSBORO      NOT AVBL
HOPKINSVILLE   CLEAR     85  66  52 S6        29.97S
BOWLING GREEN  MOCLDY    85  64  49 SE7       29.99R
GLASGOW        MOCLDY    83  62  47 S3        30.01R
$$

KYZ024-025-028>034-038-045-046-053-300100-
NORTH CENTRAL KENTUCKY

CITY           SKY/WX    TMP DP  RH WIND       PRES   REMARKS
LOUISVILLE/SDF PTCLDY    86  61  42 S8        29.99R
LOUISVILLE/LOU PTCLDY    86  60  41 S5        29.99R
FORT KNOX      MOCLDY    81  66  59 SE7       29.99S
$$

KYZ035>037-039>044-047>052-055>060-089>105-300100-
NORTHEAST KENTUCKY

CITY           SKY/WX    TMP DP  RH WIND       PRES   REMARKS
LEXINGTON      PTCLDY    84  67  56 S8        30.03R
COVINGTON      MOCLDY    83  69  62 E7        30.01R
FRANKFORT      CLEAR     83  64  52 SW6       30.00S
$$

KYZ054-064>069-076>088-106>120-300100-
SOUTHEAST KENTUCKY

CITY           SKY/WX    TMP DP  RH WIND       PRES   REMARKS
JACKSON        PTCLDY    78  71  79 CALM      30.07S
LONDON         CLEAR     84  72  67 CALM      30.06R
SOMERSET       CLEAR     81  64  57 E3        30.05R
MIDDLESBORO    CLEAR     81  71  71 CALM      30.07R
MONTICELLO     CLEAR     78  72  82 CALM      30.05S
$$




USA.gov is the U.S. government's official web portal to all federal, state and local government web resources and services.